Regional Weather Roundup
Issued by NWS Newport/Morehead, NC

Current Version | Previous Version | Graphics & Text | Print | Product List | Glossary Off
Versions: 1 2 3 4 5 6 7 8 9 10 11 12 13 14 15 16 17 18 19 20 21 22 23 24 25 26 27 28 29 30 31 32 33 34 35 36 37 38 39 40 41 42 43 44 45 46 47 48 49 50
000 ASUS42 KMHX 061625 RWRMHX WEATHER ROUNDUP FOR EASTERN NORTH CAROLINA NATIONAL WEATHER SERVICE NEWPORT/MOREHEAD CITY NC 1200 PM EDT FRI MAY 06 2016 NOTE: "FAIR" INDICATES FEW OR NO CLOUDS BELOW 12,000 FEET WITH NO SIGNIFICANT WEATHER AND/OR OBSTRUCTIONS TO VISIBILITY NCZ015>017-031-032-045>047-102-103-061700- NORTH COAST CITY SKY/WX TMP DP RH WIND PRES REMARKS EDENTON HVY RAIN 58 57 96 NW5 29.71S ELIZABETH CITY LGT RAIN 56 50 80 W3 29.70R KITTY HAWK LGT RAIN 59 51 77 E7 29.68S MANTEO CLOUDY 58 56 92 SE9 29.69F $$ NCZ045>047-081-094-103-104-061700- CENTRAL COAST CITY SKY/WX TMP DP RH WIND PRES REMARKS FRISCO MOSUNNY 58 49 72 SW14 29.72R SWANQUARTER NOT AVBL $$ NCZ095-097-098-100-101-061700- SOUTHERN COAST CITY SKY/WX TMP DP RH WIND PRES REMARKS BEAUFORT CLOUDY 58 49 72 W9 29.73S CEDAR ISLAND NOT AVBL JACKSONVILLE CLOUDY 60 49 66 W12 29.74R PINEY ISLAND CLOUDY N/A N/A N/A W12 29.72R WILMINGTON PTSUNNY 61 48 62 NW9 29.76S $$ NCZ011>013-027>030-043-044-078>080-089-090>093-098-061700- COASTAL PLAIN CITY SKY/WX TMP DP RH WIND PRES REMARKS AHOSKIE CLOUDY 54 50 87 CALM 29.72S CLINTON CLOUDY 58 53 83 N7 29.77S ELIZABETHTOWN CLOUDY 61 48 63 NW12 29.77S GOLDSBORO PTSUNNY 61 54 77 W14 29.71F GREENVILLE CLOUDY 57 54 88 NW3 29.75F FOG HAVELOCK DRIZZLE 60 51 72 W16G24 29.73F KENANSVILLE CLOUDY 56 49 79 CALM 29.76S KINSTON PTSUNNY 57 52 82 NW6 29.75R NEW BERN LGT RAIN 56 50 80 W10 29.74S RICHLANDS CLOUDY 61 51 70 W8 29.75R ROCKY MOUNT CLOUDY 59 52 77 VRB5 29.72S WASHINGTON MOSUNNY 59 53 80 W8 29.71S WHITEVILLE NOT AVBL $$ AMZ130-135-150-152-154-156-158-170-250-252-270-ANZ085-086-088-633-658-670-061700- MARINE OBSERVATIONS STATION/POSITION TIME TEMP WIND PRES WAVE SWELL AIR SEA DIR/SP/G HT/PER HT/PER (UTC) (F) (DEG/KT/KT) (MB) (FT/S) (FT/S) CHESAPEAKE LIGHT 1600 51 190/ 3/ 3 1006.3 64 E VA BEACH 1550 52 52 260/ 6/ 8 1005.5 6/ 9 7/ 9 DUCK 1600 57 59 90/ 5/ 7 1005.1 2 E DUCK 1511 60 N/A 5/ 8 2/11 OREGON INLET 1600 59 59 150/ 8/ 11 1005.3 13E OREGON INLT 1500 57 N/A 5/ 8 5/ 8 HATTERAS CG NOT AVBL DIAMOND BUOY 1550 60 75 240/ 17/ 25 1006.2 6/ 9 3/ 9 CAPE LOOKOUT 1600 58 250/ 12/ 15 1006.5 BEAUFORT LAB 1600 59 65 240/ 3/ 8 1005.8 30 SE NEW RVR IN 1525 72 N/A 4/ 9 27 SE WRIGHTSVLE 1608 60 72 290/ 14/ 19 1007.1 5 SE WRIGHTSVLE 1608 59 69 310/ 12/ 16 1008.4 225 S CAPE HAT 1550 68 73 290/ 12/ 16 1008.7 9/ 8 8/ 8 41 SE CHARLESTON 1550 61 72 310/ 16/ 19 1009.6 3/ 5 $$

USA.gov is the U.S. government's official web portal to all federal, state and local government web resources and services.